Location: ??????
(38.3184°N, 23.6932°E)
Time: 01:19:54
(UTC+00:00)

H-2A R/B - Pass Details

Date: 16 October 2021
Orbit: 577 x 654 km, 98.5° (Epoch: 04 December)

Event Time Altitude Azimuth Distance (km) Brightness Sun altitude
Rises 16:38:48 0° 25° (NNE) 2,800 5.1 -11.1°
Reaches altitude 10° 16:41:11 10° 36° (NE) 1,900 4.2 -11.6°
Maximum altitude 16:44:46 29° 98° (E) 1,078 2.7 -12.3°
Drops below altitude 10° 16:48:23 10° 159° (SSE) 1,908 4.4 -13.0°
Sets 16:50:46 0° 170° (S) 2,815 5.4 -13.5°
